Location: Newark
(43.0000°N, 1.6781°W)
Time: 14:46:46
(UTC+00:00)

SR - All Passes

Search period start: 23 April 2021 00:00
Search period end: 03 May 2021 00:00
Orbit: 573 x 882 km, 66.7° (Epoch: 22 April)

Date Brightness Start Highest point End Pass type
(mag) Time Alt. Az. Time Alt. Az. Time Alt. Az.
23 Apr - 05:46:29 10° S 05:51:19 31° ESE 05:56:23 10° NE daylight
23 Apr - 07:27:45 10° SW 07:33:13 47° NW 07:38:56 10° NNE daylight
23 Apr - 09:14:20 10° NW 09:16:53 13° NNW 09:19:28 10° N daylight
23 Apr - 14:26:20 10° NNW 14:31:30 32° NE 14:36:24 10° ESE daylight
23 Apr - 16:08:20 10° NW 16:13:50 47° WSW 16:18:56 10° S daylight
24 Apr - 04:58:41 10° SE 05:01:58 16° ESE 05:05:22 10° ENE daylight
24 Apr - 06:37:37 10° SSW 06:43:16 82° WNW 06:49:14 10° NNE daylight
24 Apr - 08:22:16 10° W 08:26:20 19° NW 08:30:31 10° N daylight
24 Apr - 13:36:57 10° N 13:41:12 20° NE 13:45:16 10° E daylight
24 Apr - 15:18:20 10° NNW 15:24:10 89° WSW 15:29:32 10° SSE daylight
24 Apr - 17:02:51 10° WNW 17:05:17 13° W 17:07:40 10° SW daylight
25 Apr - 05:48:05 10° S 05:53:33 55° ESE 05:59:19 10° NE daylight
25 Apr - 07:31:00 10° WSW 07:36:00 30° NW 07:41:11 10° NNE daylight
25 Apr - 12:47:57 10° N 12:50:41 13° NNE 12:53:21 10° ENE daylight
25 Apr - 14:28:36 10° NNW 14:34:15 51° NE 14:39:32 10° SE daylight
25 Apr - 16:11:22 10° NW 16:16:00 26° WSW 16:20:22 10° SSW daylight
26 Apr - 04:59:16 10° SSE 05:04:02 29° ESE 05:09:00 10° NE daylight
26 Apr - 06:40:21 10° SW 06:45:52 50° NW 06:51:39 10° NNE daylight
26 Apr - 08:26:43 10° WNW 08:29:29 13° NNW 08:32:16 10° N daylight
26 Apr - 13:39:03 10° NNW 13:44:09 30° NE 13:48:56 10° ESE daylight
26 Apr - 15:20:59 10° NW 15:26:32 50° WSW 15:31:39 10° S daylight
27 Apr - 04:11:38 10° SE 04:14:42 15° ESE 04:17:51 10° ENE visible
27 Apr - 05:50:17 10° SSW 05:55:57 87° WNW 06:01:56 10° NNE daylight
27 Apr - 07:34:46 10° W 07:38:57 20° NW 07:43:16 10° N daylight
27 Apr - 12:49:44 10° N 12:53:48 19° NE 12:57:44 10° E daylight
27 Apr - 14:31:01 10° NNW 14:36:50 86° ENE 14:42:11 10° SSE daylight
27 Apr - 16:15:16 10° WNW 16:18:01 14° WSW 16:20:41 10° SW daylight
28 Apr - 05:00:49 10° S 05:06:15 52° ESE 05:11:58 10° NE daylight
28 Apr - 06:43:33 10° WSW 06:48:39 31° NW 06:53:54 10° NNE daylight
28 Apr - 12:00:47 10° N 12:03:16 13° NNE 12:05:43 10° NE daylight
28 Apr - 13:41:18 10° NNW 13:46:55 48° NE 13:52:07 10° SE daylight
28 Apr - 15:23:59 10° NW 15:28:43 28° WSW 15:33:09 10° SSW daylight
29 Apr - 04:12:04 10° SSE 04:16:45 27° ESE 04:21:37 10° NE visible
29 Apr - 05:52:57 10° SW 05:58:32 52° NW 06:04:21 10° NNE daylight
29 Apr - 07:39:07 10° WNW 07:42:04 14° NNW 07:45:03 10° N daylight
29 Apr - 12:51:47 10° NNW 12:56:46 28° NE 13:01:28 10° ESE daylight
29 Apr - 14:33:40 10° NW 14:39:13 54° WSW 14:44:21 10° S daylight
30 Apr - 03:24:37 10° SE 03:27:26 14° ESE 03:30:18 10° ENE visible
30 Apr - 05:02:56 10° SSW 05:08:38 89° ESE 05:14:37 10° NNE daylight
30 Apr - 06:47:15 10° W 06:51:34 21° NW 06:56:00 10° N daylight
30 Apr - 12:02:29 10° N 12:06:25 18° NE 12:10:12 10° E daylight
30 Apr - 13:43:43 10° NNW 13:49:30 81° ENE 13:54:50 10° SSE daylight
30 Apr - 15:27:44 10° WNW 15:30:44 15° WSW 15:33:38 10° SW daylight
01 May - 04:13:32 10° S 04:18:57 48° ESE 04:24:37 10° NE visible
01 May - 05:56:06 10° WSW 06:01:17 33° NW 06:06:37 10° NNE daylight
01 May - 11:13:38 10° N 11:15:51 12° NNE 11:18:02 10° NE daylight
01 May - 12:54:01 10° NNW 12:59:34 45° NE 13:04:42 10° SE daylight
01 May - 14:36:37 10° NW 14:41:25 29° WSW 14:45:55 10° SSW daylight
02 May - 03:24:53 10° SSE 03:29:28 26° ESE 03:34:12 10° NE visible
02 May - 05:05:34 10° SW 05:11:11 56° NW 05:17:03 10° NNE daylight
02 May - 06:51:32 10° WNW 06:54:40 14° NNW 06:57:50 10° N daylight
02 May - 12:04:31 10° NNW 12:09:23 27° NE 12:14:00 10° ESE daylight
02 May - 13:46:19 10° NW 13:51:55 57° WSW 13:57:03 10° SSE daylight
